Location: Harwich
(41.7160°N, 69.9939°W)
Time: 08:37:47
(UTC+01:00)

DIWATA 2B (PO-101) - Visible Passes

Search period start: 09 December 2025 00:00
Search period end: 19 December 2025 00:00
Orbit: 563 x 574 km, 98.1° (Epoch: 08 December)

Date Brightness Start Highest point End Pass type
(mag) Time Alt. Az. Time Alt. Az. Time Alt. Az.
09 Dec ? 01:08:22 15° NW 01:09:17 16° WNW 01:11:50 10° WSW visible
09 Dec ? 10:18:36 10° SE 10:22:05 29° ENE 10:23:38 22° NNE visible
09 Dec ? 11:54:00 10° SW 11:57:08 22° W 11:59:44 13° NW visible
09 Dec ? 23:33:45 22° NE 23:36:01 43° E 23:39:53 10° S visible
10 Dec ? 01:09:50 15° NW 01:10:43 16° WNW 01:13:11 10° WSW visible
10 Dec ? 10:20:00 10° SE 10:23:30 30° ENE 10:25:01 23° NNE visible
10 Dec ? 11:55:30 10° SW 11:58:34 21° W 12:01:07 13° NW visible
10 Dec ? 23:35:12 22° NE 23:37:27 44° E 23:41:20 10° S visible
11 Dec ? 01:11:18 15° NW 01:12:08 15° WNW 01:14:31 10° W visible
11 Dec ? 10:21:23 10° SE 10:24:56 31° ENE 10:26:23 24° NNE visible
11 Dec ? 11:56:59 10° SW 12:00:00 20° W 12:02:28 13° NW visible
11 Dec ? 23:36:38 23° NE 23:38:52 46° E 23:42:46 10° S visible
12 Dec ? 01:12:44 14° NW 01:13:32 15° WNW 01:15:51 10° W visible
12 Dec ? 10:22:45 10° SE 10:26:19 31° ENE 10:27:44 25° NNE visible
12 Dec ? 11:58:27 10° SW 12:01:25 20° W 12:03:49 13° NW visible
12 Dec ? 23:38:04 23° NE 23:40:17 47° E 23:44:12 10° S visible
13 Dec ? 01:14:09 14° NW 01:14:55 15° WNW 01:17:10 10° W visible
13 Dec ? 10:24:07 10° SE 10:27:43 32° ENE 10:29:05 25° NNE visible
13 Dec ? 11:59:55 10° SW 12:02:50 19° W 12:05:11 12° NW visible
13 Dec ? 23:39:28 23° NE 23:41:41 49° E 23:45:37 10° S visible
14 Dec ? 01:15:34 14° NW 01:16:19 14° WNW 01:18:29 10° W visible
14 Dec ? 10:25:29 10° SE 10:29:07 33° ENE 10:30:26 26° NNE visible
14 Dec ? 12:01:22 10° SW 12:04:14 19° W 12:06:32 12° NW visible
14 Dec ? 23:40:52 24° NE 23:43:04 51° E 23:47:01 10° S visible
15 Dec ? 01:16:57 13° NW 01:17:41 14° WNW 01:19:46 10° W visible
15 Dec ? 10:26:49 10° SE 10:30:28 34° ENE 10:31:46 27° NNE visible
15 Dec ? 12:02:49 10° SW 12:05:37 18° W 12:07:51 12° NW visible
15 Dec ? 23:42:14 24° NNE 23:44:27 52° E 23:48:24 10° S visible
16 Dec ? 01:18:19 13° NW 01:19:03 13° WNW 01:21:03 10° W visible
16 Dec ? 10:28:10 10° SE 10:31:50 35° ENE 10:33:06 28° NNE visible
16 Dec ? 12:04:16 10° SW 12:07:00 18° W 12:09:11 12° WNW visible
16 Dec ? 23:43:36 24° NNE 23:45:48 54° E 23:49:47 10° S visible
17 Dec ? 01:19:41 13° NW 01:20:23 13° WNW 01:22:18 10° W visible
17 Dec ? 10:29:29 10° SE 10:33:11 36° ENE 10:34:25 29° NNE visible
17 Dec ? 12:05:41 10° SW 12:08:21 17° W 12:10:30 12° WNW visible
17 Dec ? 23:44:57 24° NNE 23:47:10 56° E 23:51:09 10° S visible
18 Dec ? 01:21:02 12° NW 01:21:44 13° WNW 01:23:33 10° W visible
18 Dec ? 10:30:49 10° SE 10:34:32 37° ENE 10:35:44 30° NNE visible
18 Dec ? 12:07:06 10° SW 12:09:43 17° W 12:11:50 12° WNW visible
18 Dec ? 23:46:17 25° NNE 23:48:31 58° E 23:52:31 10° S visible
